Selinsgrove, PA

5:42 AM EST on November 21, 2019 (GMT -0500)
Penn Valley

Weather History for KSEG - June, 2019

Change the Weather History Date:

Monday, June 10, 2019

  Actual Average (KIPT) Record (KIPT)
Temperature  
Mean Temperature 61 °F -  
Max Temperature 68 °F 75 °F 95 °F (2008)
Min Temperature 53 °F 54 °F 37 °F (1913)
Degree Days  
Heating Degree Days 4    
Growing Degree Days 11 (Base 50)    
Moisture  
Dew Point 56 °F    
Average Humidity 86    
Maximum Humidity 100    
Minimum Humidity 32    
Precipitation  
Precipitation 0.49 in - - ()
Sea Level Pressure  
Sea Level Pressure 30.00 in    
Wind  
Wind Speed 4 mph (North)    
Max Wind Speed 10 mph    
Max Gust Speed -    
Visibility 4 miles    
Events Rain    
Averages and records for this station are not official NWS values.
T = Trace of Precipitation, MM = Missing Value Source: NWS Daily Summary

Daily Weather History Graph

Daily Weather History Graph

Search for Another Location

Airport or City:

Astronomy

Jun. 10, 2019 Rise Set
Actual Time 5:35 AM EDT 8:38 PM EDT
Civil Twilight 5:02 AM EDT 9:11 PM EDT
Nautical Twilight 4:20 AM EDT 9:54 PM EDT
Astronomical Twilight 3:30 AM EDT 10:43 PM EDT
Moon 1:23 PM EDT (6/10) 1:49 AM EDT (6/10)
Length of Visible Light 16h 09m
Length of Day
15h 02m
First Quarter, 55% of the Moon is Illuminated
Jun 10
First Quarter
Jun 17
Full
Jun 25
Last Quarter
Jul 2
New
Jul 9
First Quarter

Hourly Weather History & Observations

Time (EDT) Temp. Dew Point Humidity Pressure Visibility Wind Dir Wind Speed Gust Speed Precip Events Conditions
12:53 AM 69.1 °F 39.9 °F 35% 30.16 in 10.0 mi ESE 6.9 mph - N/A   Overcast
1:53 AM 68.0 °F 37.9 °F 33% 30.15 in 10.0 mi ESE 10.4 mph - N/A   Overcast
2:33 AM 66.9 °F 37.9 °F 34% 30.14 in 10.0 mi ESE 8.1 mph - N/A   Overcast
2:53 AM 66.9 °F 36.0 °F 32% 30.12 in 10.0 mi ENE 4.6 mph - N/A   Overcast
3:32 AM 66.9 °F 37.0 °F 33% 30.12 in 10.0 mi East 5.8 mph - N/A   Overcast
3:53 AM 66.0 °F 37.9 °F 36% 30.11 in 10.0 mi SE 3.5 mph - N/A   Overcast
4:53 AM 66.0 °F 37.0 °F 34% 30.09 in 10.0 mi NNE 3.5 mph - N/A   Overcast
5:53 AM 64.0 °F 39.9 °F 41% 30.08 in 10.0 mi NNE 3.5 mph - N/A   Overcast
6:45 AM 57.0 °F 51.1 °F 81% 30.11 in 1.8 mi Calm Calm - 0.03 in Rain Rain
6:53 AM 55.9 °F 52.0 °F 87% 30.10 in 1.2 mi Calm Calm - 0.06 in Rain Rain
7:07 AM 55.0 °F 52.0 °F 89% 30.11 in 2.5 mi Calm Calm - 0.01 in Rain Light Rain
7:18 AM 55.0 °F 53.1 °F 93% 30.11 in 1.2 mi Calm Calm - 0.05 in Rain Light Rain
7:50 AM 53.6 °F 53.6 °F 100% 30.10 in 2.0 mi Calm Calm - 0.11 in Rain Light Rain
7:53 AM 54.0 °F 53.1 °F 97% 30.10 in 2.5 mi Calm Calm - 0.11 in Rain Light Rain
8:02 AM 54.0 °F 53.1 °F 97% 30.10 in 1.8 mi Calm Calm - 0.01 in Rain Light Rain
8:10 AM 55.0 °F 53.1 °F 93% 30.10 in 2.0 mi Calm Calm - 0.01 in   Overcast
8:17 AM 55.0 °F 53.1 °F 93% 30.10 in 1.5 mi NNW 3.5 mph - 0.02 in Rain Light Rain
8:26 AM 55.9 °F 53.1 °F 90% 30.09 in 3.0 mi NNW 3.5 mph - 0.02 in Rain Light Rain
8:45 AM 55.9 °F 54.0 °F 93% 30.09 in 1.8 mi NNW 5.8 mph - 0.04 in Rain Light Rain
8:53 AM 55.9 °F 54.0 °F 93% 30.08 in 1.2 mi NNW 5.8 mph - 0.06 in Rain Light Rain
9:03 AM 55.9 °F 54.0 °F 93% 30.09 in 1.0 mi Calm Calm - 0.04 in Rain Rain
9:14 AM 55.9 °F 55.0 °F 97% 30.08 in 1.5 mi Calm Calm - 0.05 in Rain Light Rain
9:20 AM 55.9 °F 54.0 °F 93% 30.08 in 2.0 mi NNW 5.8 mph - 0.06 in Rain Light Rain
9:27 AM 55.9 °F 54.0 °F 93% 30.08 in 1.8 mi NNW 6.9 mph - 0.07 in Rain Light Rain
9:31 AM 55.9 °F 54.0 °F 93% 30.08 in 3.0 mi NNW 5.8 mph - 0.07 in Rain Light Rain
9:53 AM 57.0 °F 55.0 °F 93% 30.07 in 4.0 mi NNW 5.8 mph - 0.08 in Rain Light Rain
10:02 AM 57.0 °F 55.0 °F 93% 30.07 in 1.8 mi NNW 5.8 mph - 0.02 in Rain Rain
10:20 AM 57.0 °F 55.0 °F 93% 30.06 in 2.0 mi NNW 5.8 mph - 0.03 in Rain Light Rain
10:31 AM 57.0 °F 55.0 °F 93% 30.06 in 3.0 mi NNW 5.8 mph - 0.03 in Rain Light Rain
10:53 AM 57.9 °F 55.9 °F 93% 30.05 in 4.0 mi NNW 5.8 mph - 0.04 in   Overcast
11:06 AM 57.9 °F 55.9 °F 93% 30.05 in 2.5 mi NW 3.5 mph - 0.00 in Rain Light Rain
11:21 AM 57.9 °F 55.9 °F 93% 30.04 in 6.0 mi NNW 5.8 mph - 0.00 in   Overcast
11:34 AM 57.9 °F 55.9 °F 93% 30.04 in 2.0 mi North 3.5 mph - 0.00 in   Overcast
11:53 AM 59.0 °F 57.0 °F 93% 30.03 in 3.0 mi NNW 4.6 mph - 0.01 in   Overcast
12:53 PM 60.1 °F 57.9 °F 93% 30.01 in 4.0 mi North 4.6 mph - 0.00 in Rain Light Rain
1:53 PM 62.1 °F 59.0 °F 90% 29.99 in 10.0 mi Calm Calm - 0.00 in   Overcast
2:53 PM 63.0 °F 60.1 °F 90% 29.96 in 9.0 mi North 3.5 mph - N/A   Overcast
3:53 PM 64.0 °F 60.1 °F 87% 29.94 in 5.0 mi Calm Calm - N/A   Overcast
4:10 PM 64.9 °F 62.1 °F 90% 29.93 in 2.0 mi Calm Calm - N/A   Overcast
4:33 PM 64.0 °F 61.0 °F 90% 29.92 in 3.0 mi Calm Calm - N/A   Overcast
4:53 PM 64.9 °F 62.1 °F 90% 29.91 in 6.0 mi Calm Calm - N/A   Overcast
5:10 PM 64.9 °F 62.1 °F 90% 29.91 in 7.0 mi Calm Calm - N/A   Overcast
5:39 PM 64.0 °F 62.1 °F 93% 29.90 in 3.0 mi Calm Calm - 0.00 in   Overcast
5:53 PM 64.0 °F 62.1 °F 93% 29.89 in 2.0 mi Calm Calm - 0.00 in   Overcast
6:02 PM 64.0 °F 62.1 °F 93% 29.89 in 3.0 mi Calm Calm - N/A   Overcast
6:19 PM 64.9 °F 62.1 °F 90% 29.89 in 4.0 mi Calm Calm - N/A   Overcast
6:39 PM 64.9 °F 63.0 °F 93% 29.88 in 2.5 mi Calm Calm - N/A   Overcast
6:53 PM 64.9 °F 63.0 °F 93% 29.88 in 4.0 mi Calm Calm - N/A   Overcast
7:09 PM 64.9 °F 63.0 °F 93% 29.89 in 4.0 mi Calm Calm - N/A   Overcast
7:32 PM 64.9 °F 63.0 °F 93% 29.88 in 2.0 mi Calm Calm - N/A   Overcast
7:35 PM 64.9 °F 63.0 °F 93% 29.88 in 1.8 mi Calm Calm - N/A   Overcast
7:53 PM 64.9 °F 63.0 °F 93% 29.88 in 1.8 mi Calm Calm - 0.02 in Rain Light Rain
8:00 PM 64.9 °F 63.0 °F 93% 29.88 in 2.0 mi Calm Calm - 0.00 in   Overcast
8:07 PM 64.9 °F 63.0 °F 93% 29.88 in 1.5 mi Calm Calm - 0.00 in   Overcast
8:18 PM 64.9 °F 64.0 °F 97% 29.88 in 1.5 mi Calm Calm - 0.00 in   Overcast
8:28 PM 64.9 °F 64.0 °F 97% 29.87 in 2.0 mi Calm Calm - 0.00 in   Overcast
8:42 PM 64.9 °F 63.0 °F 93% 29.87 in 4.0 mi Calm Calm - 0.00 in   Overcast
8:53 PM 64.9 °F 63.0 °F 93% 29.87 in 5.0 mi SSW 3.5 mph - 0.00 in   Overcast
9:29 PM 64.9 °F 63.0 °F 93% 29.87 in 3.0 mi Calm Calm - 0.00 in Rain Light Rain
9:53 PM 64.9 °F 63.0 °F 93% 29.87 in 4.0 mi SW 3.5 mph - 0.00 in Rain Light Rain
10:21 PM 64.9 °F 63.0 °F 93% 29.88 in 5.0 mi Variable 3.5 mph - 0.02 in Rain Light Rain
10:45 PM 64.9 °F 63.0 °F 93% 29.87 in 5.0 mi South 3.5 mph - 0.04 in Rain Light Rain
10:53 PM 64.9 °F 64.0 °F 97% 29.87 in 6.0 mi South 3.5 mph - 0.04 in Rain Light Rain
11:25 PM 64.9 °F 64.0 °F 97% 29.87 in 4.0 mi Calm Calm - 0.06 in Rain Light Rain
11:49 PM 64.4 °F 64.4 °F 100% 29.88 in 6.0 mi Calm Calm - 0.07 in Rain Light Rain
11:53 PM 64.9 °F 64.0 °F 97% 29.87 in 6.0 mi Calm Calm - 0.07 in   Overcast